Flag for Indonesia Weather past 2 weeks in Manado, North Sulawesi, Indonesia

Now
86 °F

Passing clouds.


Feels Like: 92 °F
Forecast: 75 / 86 °F
Wind: 9 mph from South

Location: Menado / Dr. Sam Ratulangi

Current Time: Aug 30, 2014 at 10:10:25 AM

Latest Report: Aug 30, 2014 at 9:30 AM


Visibility: N/A

Pressure: 29.86 "Hg

Humidity: 62%

Dew point: 72 °F

Location of ManadoLocation

Historic Weather in Manado — Graph

°F

Manado temperature yesterday

Maximum temperature yesterday: 88 °F (at 1:30 PM)
Minimum temperature yesterday: 75 °F (at 7:00 PM)
Average temperature yesterday: 80 °F

Past Weeks' High & Low Weather Summary

 TemperatureHumidityPressure
High91 °F (Aug 21, 1:00 PM)100% (Aug 20, 4:30 AM)29.95 "Hg (Aug 20, 4:30 AM)
Low70 °F (Aug 20, 4:30 AM)43% (Aug 22, 3:30 PM)29.74 "Hg (Aug 25, 2:30 PM)
Average81 °F73%29.84 "Hg
* Reported Aug 15 9:00 AM — Aug 30 9:00 AM, Manado, Weather by CustomWeather, © 2014

Note: Actual official high and low records may vary slightly from our data, if they occured in-between our weather recording intervals... More about our weather records

Advertising

Manado weather history for previous 24 hours

 ConditionsComfort  
Time TempWeatherWind HumidityBarometerVisibility
9:00 AM
Aug 30
84 °FPassing clouds.9 mph66%29.89 "HgN/A
8:30 AM82 °FPassing clouds.2 mph70%29.89 "HgN/A
8:00 AM81 °FPassing clouds.3 mph79%29.89 "HgN/A
7:30 AM79 °FPassing clouds.2 mph84%29.89 "HgN/A
7:00 AM77 °FPassing clouds.No wind89%29.86 "HgN/A
6:00 AM72 °FPassing clouds.1 mph100%29.86 "HgN/A
5:30 AM72 °FPassing clouds.1 mph100%29.86 "HgN/A
5:00 AM73 °FPassing clouds.2 mph94%29.83 "HgN/A
11:30 PM
Aug 29
75 °FPassing clouds.1 mph89%29.89 "HgN/A
11:00 PM75 °FPassing clouds.2 mph89%29.89 "HgN/A
10:30 PM75 °FPassing clouds.3 mph89%29.89 "Hg6 mi
10:00 PM75 °FPassing clouds.3 mph89%29.89 "Hg6 mi
9:30 PM75 °FPassing clouds.2 mph94%29.89 "Hg6 mi
9:00 PM77 °FPassing clouds.2 mph89%29.86 "Hg6 mi
8:30 PM75 °FPassing clouds.2 mph94%29.86 "Hg6 mi
8:00 PM75 °FPassing clouds.6 mph94%29.86 "Hg6 mi
7:30 PM75 °FPassing clouds.5 mph94%29.86 "Hg6 mi
7:00 PM75 °FPassing clouds.3 mph94%29.83 "Hg6 mi
6:30 PM77 °FPassing clouds.3 mph89%29.83 "Hg6 mi
6:00 PM77 °FPassing clouds.3 mph94%29.80 "Hg6 mi
5:30 PM77 °FLight rain. Scattered clouds.5 mph94%29.80 "Hg5 mi
5:00 PM77 °FRain. Scattered clouds.8 mph94%29.80 "Hg3 mi
4:00 PM86 °FPassing clouds.7 mph70%29.77 "HgN/A
3:30 PM88 °FPassing clouds.7 mph62%29.77 "HgN/A
3:00 PM88 °FPassing clouds.6 mph62%29.77 "HgN/A
2:30 PM88 °FScattered clouds.3 mph62%29.77 "HgN/A
2:00 PM88 °FScattered clouds.3 mph59%29.77 "HgN/A
1:30 PM88 °FScattered clouds.7 mph59%29.80 "HgN/A
1:00 PM86 °FScattered clouds.12 mph62%29.80 "HgN/A
12:30 PM84 °FScattered clouds.12 mph66%29.83 "HgN/A
12:00 PM84 °FScattered clouds.14 mph66%29.83 "HgN/A
11:30 AM84 °FScattered clouds.16 mph66%29.86 "HgN/A
11:00 AM82 °FScattered clouds.13 mph70%29.86 "Hg6 mi
10:00 AM81 °FScattered clouds.8 mph74%29.89 "Hg6 mi
Weather by CustomWeather, © 2014

See weather overviewHow to use our weather pages